GW7005 Weather Reports


time (UTC)temp
C
wind
direction
speed
KPH
gust
KPH
rain 1hr
cm
rain 24hr
cm
rain mn
cm
humidity
%
barometer
mb
20260906121530 21 209 0.0 0.0 0.00 0.99 0.00 97 1018.3
20260906120019 21 209 0.0 0.0 0.00 0.99 0.00 96 1018.1
20260906114531 21 209 0.0 0.0 0.00 0.99 0.00 96 1018.1
20260906113022 21 209 0.0 0.0 0.00 0.99 0.00 96 1018.0
20260906111522 21 209 0.0 0.0 0.00 0.99 0.00 96 1017.7
20260906110031 21 209 0.0 0.0 0.00 0.99 0.00 96 1017.7
20260906104515 21 209 0.0 0.0 0.00 0.99 0.00 95 1017.5
20260906103032 21 209 0.0 0.0 0.00 0.99 0.00 95 1017.6
20260906101524 21 209 0.0 0.0 0.00 0.99 0.00 95 1017.5
20260906100017 22 209 0.0 0.0 0.00 0.99 0.00 95 1017.3
20260906094528 22 209 0.0 0.0 0.00 0.99 0.00 94 1017.0
20260906093020 22 209 0.0 0.0 0.00 0.99 0.00 94 1017.0
20260906091553 22 209 0.0 0.0 0.00 0.99 0.00 94 1016.8
20260906090022 22 209 0.0 0.0 0.00 0.99 0.00 94 1016.9
20260906084515 22 208 0.0 0.0 0.00 0.99 0.00 94 1016.7
20260906083026 22 208 0.0 0.0 0.00 0.99 0.00 94 1016.7
20260906081517 22 208 0.0 0.0 0.00 0.99 0.00 93 1016.6
20260906080028 22 208 0.0 1.6 0.00 0.99 0.00 93 1016.7
20260906074516 22 208 0.0 1.6 0.00 0.99 0.00 92 1016.6
20260906073021 22 208 0.0 6.4 0.00 0.99 0.00 92 1016.8
20260906071532 22 235 0.0 6.4 0.00 0.99 0.00 92 1016.9
20260906070022 22 248 0.0 1.6 0.00 0.99 0.00 91 1016.8
20260906064553 22 231 0.0 3.2 0.00 0.99 0.00 91 1016.5
20260906063042 22 210 0.0 0.0 0.00 0.99 0.00 91 1016.5
20260906061542 22 215 0.0 3.2 0.00 0.99 0.00 92 1016.7
20260906060023 22 236 0.0 1.6 0.00 0.99 0.00 92 1016.9
20260906054554 22 228 1.6 6.4 0.00 0.99 0.00 92 1017.1
20260906053042 22 219 1.6 6.4 0.00 0.99 0.00 91 1017.3
20260906051525 22 234 1.6 6.4 0.00 0.99 0.00 90 1017.5
20260906050031 22 235 1.6 4.8 0.00 0.99 0.99 90 1017.7
20260906044534 23 283 1.6 8.0 0.00 0.99 0.99 90 1017.7
20260906043021 23 232 0.0 1.6 0.00 0.99 0.99 91 1017.6
20260906041532 23 274 0.0 1.6 0.00 0.99 0.99 90 1017.7
20260906040015 23 274 0.0 1.6 0.03 0.99 0.99 90 1017.9
20260905194555 39 207 0.0 3.2 0.00 0.00 0.00 37 1018.4
20260905193017 38 110 0.0 8.0 0.00 0.00 0.00 40 1018.4
20260905191524 38 68 1.6 6.4 0.00 0.00 0.00 40 1018.4
20260905190049 37 89 0.0 3.2 0.00 0.00 0.00 41 1018.9
20260905184554 37 160 0.0 3.2 0.00 0.00 0.00 44 1019.0
20260905183022 37 214 0.0 4.8 0.00 0.00 0.00 43 1019.1
20260905181521 36 91 0.0 1.6 0.00 0.00 0.00 48 1019.2
20260905180049 36 210 0.0 9.7 0.00 0.00 0.00 46 1019.4
20260905174535 36 113 0.0 1.6 0.00 0.00 0.00 47 1019.5
20260905173022 36 134 0.0 1.6 0.00 0.00 0.00 47 1019.6
20260905171530 36 96 0.0 3.2 0.00 0.00 0.00 48 1019.7
20260905170019 36 80 0.0 3.2 0.00 0.00 0.00 47 1019.9
20260905164544 36 119 0.0 3.2 0.00 0.00 0.00 49 1019.9
20260905163022 35 245 1.6 4.8 0.00 0.00 0.00 52 1020.1
20260905161520 35 91 0.0 3.2 0.00 0.00 0.00 53 1019.9
20260905160023 35 236 0.0 3.2 0.00 0.00 0.00 54 1019.8
20260905154549 34 203 0.0 1.6 0.00 0.00 0.00 57 1020.1
20260905153029 33 60 0.0 4.8 0.00 0.00 0.00 58 1020.4
20260905151533 33 108 0.0 1.6 0.00 0.00 0.00 59 1020.2
20260905150039 32 114 1.6 3.2 0.00 0.00 0.00 62 1020.2
20260905144522 31 100 0.0 1.6 0.00 0.00 0.00 67 1020.1
20260905143025 30 100 0.0 1.6 0.00 0.00 0.00 70 1020.3
20260905141527 29 100 0.0 1.6 0.00 0.00 0.00 74 1019.9
20260905140033 28 100 0.0 1.6 0.00 0.00 0.00 76 1019.9
20260905134540 27 100 0.0 1.6 0.00 0.00 0.00 80 1019.9
20260905133029 27 101 0.0 0.0 0.00 0.00 0.00 81 1019.9
20260905131515 26 100 0.0 0.0 0.00 0.00 0.00 82 1020.1
20260905130045 26 100 0.0 0.0 0.00 0.00 0.00 84 1019.9
20260905124516 25 100 0.0 0.0 0.00 0.00 0.00 84 1019.9
20260905123019 25 100 0.0 0.0 0.00 0.00 0.00 84 1019.9